| time (UTC) | temp F | wind direction | speed MPH | gust MPH | rain 1hr in | rain 24hr in | rain mn in | humidity % | barometer mb |
| 20260506141049 | 60 | 0.0 | 0.0 | 0.03 | 0.06 | 0.06 | 91 | 1010.8 | |
| 20260506140551 | 60 | 0.0 | 0.0 | 0.04 | 0.06 | 0.06 | 91 | 1010.6 | |
| 20260506140052 | 60 | 0.0 | 0.0 | 0.05 | 0.06 | 0.06 | 89 | 1010.7 | |
| 20260506135610 | 61 | 0.0 | 0.0 | 0.05 | 0.06 | 0.06 | 89 | 1010.6 | |
| 20260506135045 | 60 | 0.0 | 0.0 | 0.06 | 0.06 | 0.06 | 88 | 1010.5 | |
| 20260506134553 | 60 | 0.0 | 0.0 | 0.06 | 0.06 | 0.06 | 88 | 1010.6 | |
| 20260506134047 | 61 | 0.0 | 0.0 | 0.06 | 0.06 | 0.06 | 87 | 1010.6 | |
| 20260506133548 | 61 | 0.0 | 0.0 | 0.06 | 0.06 | 0.06 | 87 | 1010.7 | |
| 20260506133104 | 61 | 0.0 | 0.0 | 0.05 | 0.05 | 0.05 | 87 | 1010.8 | |
| 20260506132547 | 61 | 0.0 | 0.0 | 0.04 | 0.04 | 0.04 | 86 | 1010.7 | |
| 20260506132047 | 61 | 0.0 | 0.0 | 0.04 | 0.04 | 0.04 | 86 | 1010.6 | |
| 20260506131556 | 61 | 0.0 | 0.0 | 0.03 | 0.03 | 0.03 | 85 | 1010.7 | |
| 20260506131047 | 62 | 0.0 | 0.0 | 0.02 | 0.02 | 0.02 | 85 | 1010.8 | |
| 20260506130547 | 62 | 0.0 | 0.0 | 0.01 | 0.01 | 0.01 | 84 | 1011.1 | |
| 20260506130054 | 62 | 0.0 | 0.0 | 0.01 | 0.01 | 0.01 | 84 | 1010.9 | |
| 20260506125546 | 62 | 0.0 | 0.0 | 0.01 | 0.01 | 0.01 | 84 | 1010.6 | |
| 20260506125047 | 62 | 0.0 | 0.0 | 0.00 | 0.00 | 0.00 | 83 | 1010.6 | |
| 20260506124553 | 62 | 0.0 | 0.0 | 0.00 | 0.00 | 0.00 | 83 | 1010.7 | |
| 20260506124048 | 62 | 0.0 | 0.0 | 0.00 | 0.00 | 0.00 | 83 | 1010.7 | |
| 20260506123548 | 62 | 0.0 | 0.0 | 0.00 | 0.00 | 0.00 | 83 | 1010.6 | |
| 20260506123055 | 63 | 0.0 | 0.0 | 0.00 | 0.00 | 0.00 | 82 | 1010.4 | |
| 20260506122548 | 63 | 0.0 | 0.0 | 0.00 | 0.00 | 0.00 | 81 | 1010.4 | |
| 20260506122049 | 63 | 0.0 | 0.0 | 0.00 | 0.00 | 0.00 | 81 | 1010.3 | |
| 20260506121602 | 63 | 0.0 | 0.0 | 0.00 | 0.00 | 0.00 | 81 | 1010.5 | |
| 20260506121048 | 63 | 0.0 | 0.0 | 0.00 | 0.00 | 0.00 | 80 | 1010.5 | |
| 20260506120548 | 63 | 0.0 | 0.0 | 0.00 | 0.00 | 0.00 | 80 | 1010.3 | |
| 20260506120118 | 63 | 0.0 | 0.0 | 0.00 | 0.00 | 0.00 | 79 | 1010.3 | |
| 20260506115549 | 64 | 0.0 | 0.0 | 0.00 | 0.00 | 0.00 | 79 | 1010.5 | |
| 20260506115048 | 64 | 0.0 | 0.0 | 0.00 | 0.00 | 0.00 | 78 | 1010.6 | |
| 20260506114551 | 64 | 0.0 | 0.0 | 0.00 | 0.00 | 0.00 | 77 | 1010.7 | |
| 20260506114047 | 64 | 0.0 | 0.0 | 0.00 | 0.00 | 0.00 | 76 | 1010.8 | |
| 20260506113548 | 64 | 0.0 | 0.0 | 0.00 | 0.00 | 0.00 | 75 | 1010.7 | |
| 20260506113059 | 64 | 0.0 | 0.0 | 0.00 | 0.00 | 0.00 | 75 | 1010.6 | |
| 20260506112549 | 64 | 0.0 | 0.0 | 0.00 | 0.00 | 0.00 | 75 | 1010.5 | |
| 20260506112047 | 64 | 0.0 | 0.0 | 0.00 | 0.00 | 0.00 | 74 | 1010.3 | |
| 20260506111554 | 64 | 0.0 | 0.0 | 0.00 | 0.00 | 0.00 | 73 | 1010.2 | |
| 20260506111048 | 64 | 0.0 | 0.0 | 0.00 | 0.00 | 0.00 | 73 | 1010.0 | |
| 20260506110548 | 64 | 0.0 | 0.0 | 0.00 | 0.00 | 0.00 | 73 | 1009.9 | |
| 20260506110056 | 64 | 0.0 | 0.0 | 0.00 | 0.00 | 0.00 | 72 | 1009.9 | |
| 20260506105549 | 64 | 0.0 | 0.0 | 0.00 | 0.00 | 0.00 | 73 | 1009.9 | |
| 20260506105048 | 64 | 0.0 | 0.0 | 0.00 | 0.00 | 0.00 | 72 | 1009.8 | |
| 20260506104552 | 64 | 0.0 | 0.0 | 0.00 | 0.00 | 0.00 | 72 | 1009.8 | |
| 20260506104048 | 64 | 0.0 | 0.0 | 0.00 | 0.00 | 0.00 | 72 | 1009.8 | |
| 20260506103547 | 64 | 0.0 | 0.0 | 0.00 | 0.00 | 0.00 | 72 | 1009.8 | |
| 20260506103054 | 64 | 0.0 | 0.0 | 0.00 | 0.00 | 0.00 | 72 | 1009.8 | |
| 20260506102550 | 64 | 0.0 | 0.0 | 0.00 | 0.00 | 0.00 | 72 | 1009.8 | |
| 20260506102046 | 64 | 0.0 | 0.0 | 0.00 | 0.00 | 0.00 | 72 | 1009.8 | |
| 20260506101558 | 64 | 0.0 | 0.0 | 0.00 | 0.00 | 0.00 | 72 | 1009.8 | |
| 20260506101048 | 64 | 0.0 | 0.0 | 0.00 | 0.00 | 0.00 | 72 | 1009.8 | |
| 20260506100547 | 65 | 0.0 | 0.0 | 0.00 | 0.00 | 0.00 | 72 | 1009.9 | |
| 20260506100057 | 65 | 0.0 | 0.0 | 0.00 | 0.00 | 0.00 | 72 | 1009.9 | |
| 20260506095547 | 65 | 0.0 | 0.0 | 0.00 | 0.00 | 0.00 | 72 | 1009.9 | |
| 20260506095046 | 65 | 0.0 | 0.0 | 0.00 | 0.00 | 0.00 | 71 | 1009.9 | |
| 20260506094555 | 65 | 0.0 | 0.0 | 0.00 | 0.00 | 0.00 | 71 | 1009.8 | |
| 20260506094047 | 65 | 0.0 | 0.0 | 0.00 | 0.00 | 0.00 | 71 | 1009.9 | |
| 20260506093548 | 65 | 0.0 | 0.0 | 0.00 | 0.00 | 0.00 | 71 | 1009.9 | |
| 20260506093054 | 65 | 0.0 | 0.0 | 0.00 | 0.00 | 0.00 | 71 | 1009.8 | |
| 20260506092548 | 65 | 0.0 | 0.0 | 0.00 | 0.00 | 0.00 | 70 | 1009.8 | |
| 20260506092047 | 65 | 0.0 | 0.0 | 0.00 | 0.00 | 0.00 | 70 | 1009.8 | |
| 20260506091559 | 65 | 0.0 | 0.0 | 0.00 | 0.00 | 0.00 | 70 | 1009.9 | |
| 20260506091047 | 65 | 0.0 | 0.0 | 0.00 | 0.00 | 0.00 | 70 | 1009.8 | |
| 20260506090546 | 65 | 0.0 | 0.0 | 0.00 | 0.00 | 0.00 | 70 | 1010.0 | |
| 20260506090055 | 65 | 0.0 | 0.0 | 0.00 | 0.00 | 0.00 | 70 | 1010.0 | |
| 20260506085547 | 65 | 0.0 | 0.0 | 0.00 | 0.00 | 0.00 | 69 | 1010.1 | |
| 20260506085047 | 65 | 0.0 | 0.0 | 0.00 | 0.00 | 0.00 | 69 | 1010.0 | |
| 20260506084555 | 65 | 0.0 | 0.0 | 0.00 | 0.00 | 0.00 | 69 | 1010.1 | |
| 20260506084047 | 65 | 0.0 | 0.0 | 0.00 | 0.00 | 0.00 | 69 | 1010.0 | |
| 20260506083547 | 65 | 0.0 | 0.0 | 0.00 | 0.00 | 0.00 | 68 | 1010.1 | |
| 20260506083054 | 65 | 0.0 | 0.0 | 0.00 | 0.00 | 0.00 | 68 | 1010.1 | |
| 20260506082546 | 66 | 0.0 | 0.0 | 0.00 | 0.00 | 0.00 | 68 | 1010.1 | |
| 20260506082047 | 66 | 0.0 | 0.0 | 0.00 | 0.00 | 0.00 | 67 | 1010.0 | |
| 20260506081555 | 66 | 0.0 | 0.0 | 0.00 | 0.00 | 0.00 | 67 | 1010.1 | |
| 20260506081048 | 66 | 0.0 | 0.0 | 0.00 | 0.00 | 0.00 | 67 | 1010.2 | |
| 20260506080548 | 66 | 0.0 | 0.0 | 0.00 | 0.00 | 0.00 | 66 | 1010.2 | |
| 20260506073113 | 67 | 0.0 | 0.0 | 0.00 | 0.00 | 0.00 | 64 | 1010.2 | |
| 20260506072547 | 67 | 0.0 | 0.0 | 0.00 | 0.00 | 0.00 | 64 | 1010.1 | |
| 20260506072047 | 67 | 0.0 | 0.0 | 0.00 | 0.00 | 0.00 | 64 | 1010.1 | |
| 20260506071557 | 67 | 0.0 | 0.0 | 0.00 | 0.00 | 0.00 | 63 | 1010.1 | |
| 20260506071047 | 67 | 0.0 | 0.0 | 0.00 | 0.00 | 0.00 | 63 | 1010.2 | |
| 20260506070546 | 67 | 0.0 | 0.0 | 0.00 | 0.00 | 0.00 | 63 | 1010.2 | |
| 20260506070116 | 67 | 0.0 | 0.0 | 0.00 | 0.00 | 0.00 | 63 | 1010.2 | |
| 20260506062050 | 68 | 0.0 | 0.0 | 0.00 | 0.00 | 0.00 | 61 | 1010.7 | |
| 20260506061553 | 68 | 0.0 | 0.0 | 0.00 | 0.00 | 0.00 | 61 | 1010.7 | |
| 20260506061049 | 68 | 0.0 | 0.0 | 0.00 | 0.00 | 0.00 | 61 | 1010.7 | |
| 20260506060546 | 68 | 0.0 | 0.0 | 0.00 | 0.00 | 0.00 | 60 | 1010.7 | |
| 20260506051048 | 69 | 0.0 | 0.0 | 0.00 | 0.00 | 0.00 | 57 | 1011.0 | |
| 20260506050548 | 69 | 0.0 | 0.0 | 0.00 | 0.00 | 0.00 | 58 | 1011.0 | |
| 20260506050110 | 69 | 0.0 | 0.0 | 0.00 | 0.00 | 0.00 | 57 | 1011.1 | |
| 20260506045047 | 70 | 0.0 | 0.0 | 0.00 | 0.00 | 0.00 | 57 | 1011.2 | |
| 20260506044600 | 70 | 0.0 | 0.0 | 0.00 | 0.00 | 0.00 | 57 | 1011.2 | |
| 20260506044047 | 70 | 0.0 | 0.0 | 0.00 | 0.00 | 0.00 | 56 | 1011.2 | |
| 20260506043547 | 70 | 0.0 | 0.0 | 0.00 | 0.00 | 0.00 | 56 | 1011.1 | |
| 20260506043053 | 70 | 0.0 | 0.0 | 0.00 | 0.00 | 0.00 | 55 | 1011.0 | |
| 20260506042547 | 70 | 0.0 | 0.0 | 0.00 | 0.00 | 0.00 | 55 | 1011.0 | |
| 20260506042046 | 70 | 0.0 | 0.0 | 0.00 | 0.00 | 0.00 | 55 | 1011.0 | |
| 20260506041556 | 70 | 0.0 | 0.0 | 0.00 | 0.00 | 0.00 | 55 | 1011.0 | |
| 20260506041049 | 70 | 0.0 | 0.0 | 0.00 | 0.00 | 0.00 | 55 | 1011.0 | |
| 20260506040548 | 70 | 0.0 | 0.0 | 0.00 | 0.00 | 0.00 | 54 | 1011.1 | |
| 20260506040058 | 70 | 0.0 | 0.0 | 0.00 | 0.00 | 0.00 | 54 | 1011.0 | |
| 20260506035548 | 70 | 0.0 | 0.0 | 0.00 | 0.00 | 0.00 | 54 | 1011.1 | |
| 20260506035048 | 70 | 0.0 | 0.0 | 0.00 | 0.00 | 0.00 | 54 | 1011.1 | |
| 20260506034553 | 70 | 0.0 | 0.0 | 0.00 | 0.00 | 0.00 | 54 | 1011.1 | |
| 20260506034047 | 70 | 0.0 | 0.0 | 0.00 | 0.00 | 0.00 | 53 | 1011.1 | |
| 20260506033549 | 70 | 0.0 | 0.0 | 0.00 | 0.00 | 0.00 | 53 | 1011.1 | |
| 20260506033053 | 70 | 0.0 | 0.0 | 0.00 | 0.00 | 0.00 | 53 | 1011.1 | |
| 20260506032548 | 70 | 0.0 | 0.0 | 0.00 | 0.00 | 0.00 | 53 | 1011.0 | |
| 20260506032047 | 70 | 0.0 | 0.0 | 0.00 | 0.00 | 0.00 | 53 | 1011.1 | |
| 20260506031601 | 70 | 0.0 | 0.0 | 0.00 | 0.00 | 0.00 | 53 | 1011.0 | |
| 20260506031047 | 70 | 0.0 | 0.0 | 0.00 | 0.00 | 0.00 | 52 | 1011.1 | |
| 20260506030549 | 70 | 0.0 | 0.0 | 0.00 | 0.00 | 0.00 | 52 | 1011.2 | |
| 20260506030110 | 70 | 0.0 | 0.0 | 0.00 | 0.00 | 0.00 | 51 | 1011.1 | |
| 20260506025548 | 70 | 0.0 | 0.0 | 0.00 | 0.00 | 0.00 | 51 | 1011.1 | |
| 20260506025048 | 70 | 0.0 | 0.0 | 0.00 | 0.00 | 0.00 | 51 | 1011.1 | |
| 20260506024553 | 70 | 0.0 | 0.0 | 0.00 | 0.00 | 0.00 | 50 | 1011.2 | |
| 20260506024047 | 71 | 0.0 | 0.0 | 0.00 | 0.00 | 0.00 | 50 | 1011.2 | |
| 20260506023547 | 71 | 0.0 | 0.0 | 0.00 | 0.00 | 0.00 | 49 | 1011.2 | |
| 20260506023054 | 71 | 0.0 | 0.0 | 0.00 | 0.00 | 0.00 | 49 | 1011.3 | |
| 20260506022548 | 71 | 0.0 | 0.0 | 0.00 | 0.00 | 0.00 | 49 | 1011.3 | |
| 20260506022048 | 71 | 0.0 | 0.0 | 0.00 | 0.00 | 0.00 | 48 | 1011.3 | |
| 20260506021558 | 71 | 0.0 | 0.0 | 0.00 | 0.00 | 0.00 | 48 | 1011.4 | |
| 20260506021058 | 71 | 0.0 | 0.0 | 0.00 | 0.00 | 0.00 | 48 | 1011.4 | |
| 20260506020547 | 71 | 0.0 | 0.0 | 0.00 | 0.00 | 0.00 | 47 | 1011.4 | |
| 20260506020055 | 71 | 0.0 | 0.0 | 0.00 | 0.00 | 0.00 | 46 | 1011.5 | |
| 20260506015547 | 72 | 0.0 | 0.0 | 0.00 | 0.00 | 0.00 | 46 | 1011.4 | |
| 20260506015047 | 72 | 0.0 | 0.0 | 0.00 | 0.00 | 0.00 | 45 | 1011.3 | |
| 20260506014601 | 72 | 0.0 | 0.0 | 0.00 | 0.00 | 0.00 | 45 | 1011.3 | |
| 20260506014046 | 72 | 0.0 | 0.0 | 0.00 | 0.00 | 0.00 | 44 | 1011.3 | |
| 20260506013546 | 73 | 0.0 | 0.0 | 0.00 | 0.00 | 0.00 | 43 | 1011.1 | |
| 20260506013102 | 73 | 0.0 | 0.0 | 0.00 | 0.00 | 0.00 | 43 | 1011.1 | |
| 20260506012547 | 73 | 0.0 | 0.0 | 0.00 | 0.00 | 0.00 | 41 | 1011.1 | |
| 20260506012047 | 73 | 0.0 | 0.0 | 0.00 | 0.00 | 0.00 | 41 | 1011.1 | |
| 20260506011558 | 74 | 0.0 | 0.0 | 0.00 | 0.00 | 0.00 | 42 | 1011.0 | |
| 20260506011047 | 74 | 0.0 | 0.0 | 0.00 | 0.00 | 0.00 | 40 | 1011.0 | |
| 20260506010547 | 74 | 0.0 | 0.0 | 0.00 | 0.00 | 0.00 | 40 | 1010.9 | |
| 20260506010059 | 74 | 0.0 | 0.0 | 0.00 | 0.00 | 0.00 | 40 | 1010.8 | |
| 20260506005548 | 74 | 0.0 | 0.0 | 0.00 | 0.00 | 0.00 | 40 | 1010.8 | |
| 20260506005049 | 74 | 0.0 | 0.0 | 0.00 | 0.00 | 0.00 | 40 | 1010.8 | |
| 20260506004626 | 75 | 0.0 | 0.0 | 0.00 | 0.00 | 0.00 | 39 | 1010.7 | |
| 20260506004048 | 75 | 0.0 | 0.0 | 0.00 | 0.00 | 0.00 | 38 | 1010.6 | |
| 20260506003548 | 75 | 0.0 | 0.0 | 0.00 | 0.00 | 0.00 | 39 | 1010.6 | |
| 20260506003057 | 75 | 0.0 | 0.0 | 0.00 | 0.00 | 0.00 | 39 | 1010.5 | |
| 20260506002546 | 75 | 0.0 | 0.0 | 0.00 | 0.00 | 0.00 | 37 | 1010.5 | |
| 20260506002052 | 76 | 0.0 | 0.0 | 0.00 | 0.00 | 0.00 | 38 | 1010.4 | |
| 20260506001600 | 76 | 0.0 | 0.0 | 0.00 | 0.00 | 0.00 | 37 | 1010.4 | |
| 20260506001047 | 76 | 0.0 | 0.0 | 0.00 | 0.00 | 0.00 | 37 | 1010.4 | |
| 20260506000548 | 76 | 0.0 | 0.0 | 0.00 | 0.00 | 0.00 | 36 | 1010.3 | |
| 20260506000058 | 76 | 0.0 | 0.0 | 0.00 | 0.00 | 0.00 | 35 | 1010.2 | |
| 20260505235551 | 77 | 0.0 | 0.0 | 0.00 | 0.00 | 0.00 | 35 | 1010.2 | |
| 20260505235048 | 77 | 0.0 | 0.0 | 0.00 | 0.00 | 0.00 | 35 | 1010.1 | |
| 20260505234614 | 77 | 0.0 | 0.0 | 0.00 | 0.00 | 0.00 | 34 | 1010.0 | |
| 20260505234049 | 78 | 0.0 | 0.0 | 0.00 | 0.00 | 0.00 | 34 | 1010.1 | |
| 20260505233547 | 78 | 0.0 | 0.0 | 0.00 | 0.00 | 0.00 | 33 | 1010.0 | |
| 20260505233057 | 78 | 0.0 | 0.0 | 0.00 | 0.00 | 0.00 | 33 | 1010.1 | |
| 20260505232548 | 78 | 0.0 | 0.0 | 0.00 | 0.00 | 0.00 | 33 | 1010.1 | |
| 20260505232056 | 79 | 0.0 | 0.0 | 0.00 | 0.00 | 0.00 | 31 | 1010.1 | |
| 20260505231558 | 79 | 0.0 | 0.0 | 0.00 | 0.00 | 0.00 | 31 | 1010.1 | |
| 20260505231049 | 79 | 0.0 | 0.0 | 0.00 | 0.00 | 0.00 | 30 | 1010.2 | |
| 20260505230548 | 79 | 0.0 | 0.0 | 0.00 | 0.00 | 0.00 | 29 | 1010.2 | |
| 20260505230058 | 79 | 0.0 | 0.0 | 0.00 | 0.00 | 0.00 | 29 | 1010.2 | |
| 20260505225547 | 79 | 0.0 | 0.0 | 0.00 | 0.00 | 0.00 | 29 | 1010.1 | |
| 20260505225104 | 79 | 0.0 | 0.0 | 0.00 | 0.00 | 0.00 | 28 | 1010.1 | |
| 20260505224558 | 79 | 0.0 | 0.0 | 0.00 | 0.00 | 0.00 | 28 | 1010.2 | |
| 20260505224048 | 80 | 0.0 | 0.0 | 0.00 | 0.00 | 0.00 | 27 | 1010.2 | |
| 20260505223548 | 80 | 0.0 | 0.0 | 0.00 | 0.00 | 0.00 | 29 | 1010.1 | |
| 20260505223104 | 80 | 0.0 | 0.0 | 0.00 | 0.00 | 0.00 | 30 | 1010.0 | |
| 20260505222547 | 80 | 0.0 | 0.0 | 0.00 | 0.00 | 0.00 | 31 | 1010.0 | |
| 20260505222057 | 80 | 0.0 | 0.0 | 0.00 | 0.00 | 0.00 | 30 | 1010.0 | |
| 20260505221607 | 79 | 0.0 | 0.0 | 0.00 | 0.00 | 0.00 | 31 | 1010.0 | |
| 20260505221048 | 80 | 0.0 | 0.0 | 0.00 | 0.00 | 0.00 | 30 | 1010.0 | |
| 20260505220551 | 80 | 0.0 | 0.0 | 0.00 | 0.00 | 0.00 | 30 | 1010.1 | |
| 20260505220138 | 80 | 0.0 | 0.0 | 0.00 | 0.00 | 0.00 | 28 | 1010.0 | |
| 20260505215549 | 80 | 0.0 | 0.0 | 0.00 | 0.00 | 0.00 | 28 | 1010.1 | |
| 20260505215048 | 79 | 0.0 | 0.0 | 0.00 | 0.00 | 0.00 | 28 | 1010.1 | |
| 20260505214618 | 80 | 0.0 | 0.0 | 0.00 | 0.00 | 0.00 | 28 | 1010.1 | |
| 20260505214046 | 80 | 0.0 | 0.0 | 0.00 | 0.00 | 0.00 | 27 | 1009.9 | |
| 20260505213549 | 80 | 0.0 | 0.0 | 0.00 | 0.00 | 0.00 | 28 | 1010.0 | |
| 20260505213053 | 80 | 0.0 | 0.0 | 0.00 | 0.00 | 0.00 | 27 | 1010.0 | |
| 20260505212548 | 81 | 0.0 | 0.0 | 0.00 | 0.00 | 0.00 | 27 | 1009.8 | |
| 20260505212051 | 81 | 0.0 | 0.0 | 0.00 | 0.00 | 0.00 | 27 | 1009.9 | |
| 20260505211611 | 81 | 0.0 | 0.0 | 0.00 | 0.00 | 0.00 | 27 | 1009.8 | |
| 20260505211047 | 81 | 0.0 | 0.0 | 0.00 | 0.00 | 0.00 | 27 | 1009.8 | |
| 20260505210550 | 81 | 0.0 | 0.0 | 0.00 | 0.00 | 0.00 | 28 | 1009.8 | |
| 20260505210052 | 81 | 0.0 | 0.0 | 0.00 | 0.00 | 0.00 | 28 | 1009.6 | |
| 20260505205547 | 82 | 0.0 | 0.0 | 0.00 | 0.00 | 0.00 | 27 | 1009.8 | |
| 20260505205048 | 82 | 0.0 | 0.0 | 0.00 | 0.00 | 0.00 | 27 | 1009.8 | |
| 20260505204551 | 82 | 0.0 | 0.0 | 0.00 | 0.00 | 0.00 | 27 | 1009.8 | |
| 20260505204046 | 82 | 0.0 | 0.0 | 0.00 | 0.00 | 0.00 | 29 | 1009.9 | |
| 20260505203547 | 82 | 0.0 | 0.0 | 0.00 | 0.00 | 0.00 | 28 | 1009.7 | |
| 20260505203055 | 83 | 0.0 | 0.0 | 0.00 | 0.00 | 0.00 | 30 | 1009.8 | |
| 20260505202548 | 83 | 0.0 | 0.0 | 0.00 | 0.00 | 0.00 | 27 | 1009.8 | |
| 20260505202050 | 83 | 0.0 | 0.0 | 0.00 | 0.00 | 0.00 | 28 | 1009.9 | |
| 20260505201602 | 83 | 0.0 | 0.0 | 0.00 | 0.00 | 0.00 | 27 | 1009.8 | |
| 20260505201047 | 84 | 0.0 | 0.0 | 0.00 | 0.00 | 0.00 | 27 | 1009.9 | |
| 20260505200547 | 84 | 0.0 | 0.0 | 0.00 | 0.00 | 0.00 | 27 | 1009.8 | |
| 20260505195550 | 83 | 0.0 | 0.0 | 0.00 | 0.00 | 0.00 | 28 | 1009.9 | |
| 20260505195047 | 84 | 0.0 | 0.0 | 0.00 | 0.00 | 0.00 | 29 | 1009.9 | |
| 20260505194603 | 83 | 0.0 | 0.0 | 0.00 | 0.00 | 0.00 | 29 | 1010.0 | |
| 20260505194048 | 84 | 0.0 | 0.0 | 0.00 | 0.00 | 0.00 | 28 | 1009.9 | |
| 20260505193547 | 84 | 0.0 | 0.0 | 0.00 | 0.00 | 0.00 | 29 | 1010.0 | |
| 20260505193050 | 85 | 0.0 | 0.0 | 0.00 | 0.00 | 0.00 | 28 | 1010.0 | |
| 20260505192547 | 86 | 0.0 | 0.0 | 0.00 | 0.00 | 0.00 | 28 | 1010.1 | |
| 20260505192047 | 86 | 0.0 | 0.0 | 0.00 | 0.00 | 0.00 | 30 | 1010.1 | |
| 20260505191553 | 85 | 0.0 | 0.0 | 0.00 | 0.00 | 0.00 | 28 | 1010.4 | |
| 20260505191047 | 85 | 0.0 | 0.0 | 0.00 | 0.00 | 0.00 | 31 | 1010.3 | |
| 20260505190548 | 85 | 0.0 | 0.0 | 0.00 | 0.00 | 0.00 | 27 | 1010.4 | |
| 20260505185548 | 84 | 0.0 | 0.0 | 0.00 | 0.00 | 0.00 | 28 | 1010.8 | |
| 20260505185048 | 84 | 0.0 | 0.0 | 0.00 | 0.00 | 0.00 | 28 | 1010.8 | |
| 20260505184555 | 84 | 0.0 | 0.0 | 0.00 | 0.00 | 0.00 | 28 | 1010.9 | |
| 20260505184048 | 84 | 0.0 | 0.0 | 0.00 | 0.00 | 0.00 | 28 | 1010.9 | |
| 20260505183547 | 84 | 0.0 | 0.0 | 0.00 | 0.00 | 0.00 | 28 | 1011.1 | |
| 20260505183056 | 84 | 0.0 | 0.0 | 0.00 | 0.00 | 0.00 | 29 | 1011.2 | |
| 20260505182546 | 84 | 0.0 | 0.0 | 0.00 | 0.00 | 0.00 | 29 | 1011.1 | |
| 20260505182100 | 84 | 0.0 | 0.0 | 0.00 | 0.00 | 0.00 | 29 | 1011.3 | |
| 20260505181555 | 84 | 0.0 | 0.0 | 0.00 | 0.00 | 0.00 | 29 | 1011.3 | |
| 20260505181052 | 84 | 0.0 | 0.0 | 0.00 | 0.00 | 0.00 | 28 | 1011.3 | |
| 20260505180549 | 84 | 0.0 | 0.0 | 0.00 | 0.00 | 0.00 | 29 | 1011.4 | |
| 20260505180052 | 82 | 0.0 | 0.0 | 0.00 | 0.00 | 0.00 | 30 | 1011.5 | |
| 20260505175549 | 82 | 0.0 | 0.0 | 0.00 | 0.00 | 0.00 | 29 | 1011.5 | |
| 20260505175048 | 82 | 0.0 | 0.0 | 0.00 | 0.00 | 0.00 | 30 | 1011.5 | |
| 20260505174558 | 82 | 0.0 | 0.0 | 0.00 | 0.00 | 0.00 | 30 | 1011.6 | |
| 20260505174047 | 84 | 0.0 | 0.0 | 0.00 | 0.00 | 0.00 | 29 | 1011.5 | |
| 20260505173550 | 83 | 0.0 | 0.0 | 0.00 | 0.00 | 0.00 | 29 | 1011.5 | |
| 20260505173056 | 83 | 0.0 | 0.0 | 0.00 | 0.00 | 0.00 | 29 | 1011.5 | |
| 20260505172546 | 84 | 0.0 | 0.0 | 0.00 | 0.00 | 0.00 | 30 | 1011.6 | |
| 20260505172048 | 81 | 0.0 | 0.0 | 0.00 | 0.00 | 0.00 | 35 | 1011.5 | |
| 20260505171556 | 81 | 0.0 | 0.0 | 0.00 | 0.00 | 0.00 | 33 | 1011.6 | |
| 20260505171102 | 82 | 0.0 | 0.0 | 0.00 | 0.00 | 0.00 | 33 | 1011.5 | |
| 20260505170546 | 81 | 0.0 | 0.0 | 0.00 | 0.00 | 0.00 | 34 | 1011.7 | |
| 20260505170056 | 82 | 0.0 | 0.0 | 0.00 | 0.00 | 0.00 | 34 | 1011.8 | |
| 20260505165547 | 82 | 0.0 | 0.0 | 0.00 | 0.00 | 0.00 | 36 | 1011.9 | |
| 20260505165051 | 81 | 0.0 | 0.0 | 0.00 | 0.00 | 0.00 | 37 | 1011.9 | |
| 20260505164607 | 82 | 0.0 | 0.0 | 0.00 | 0.00 | 0.00 | 35 | 1011.9 | |
| 20260505164056 | 81 | 0.0 | 0.0 | 0.00 | 0.00 | 0.00 | 36 | 1012.0 | |
| 20260505163548 | 80 | 0.0 | 0.0 | 0.00 | 0.00 | 0.00 | 36 | 1012.1 | |
| 20260505163053 | 80 | 0.0 | 0.0 | 0.00 | 0.00 | 0.00 | 38 | 1012.2 | |
| 20260505162548 | 80 | 0.0 | 0.0 | 0.00 | 0.00 | 0.00 | 39 | 1012.4 | |
| 20260505162048 | 80 | 0.0 | 0.0 | 0.00 | 0.00 | 0.00 | 37 | 1012.4 | |
| 20260505161551 | 79 | 0.0 | 0.0 | 0.00 | 0.00 | 0.00 | 38 | 1012.6 | |
| 20260505161047 | 78 | 0.0 | 0.0 | 0.00 | 0.00 | 0.00 | 38 | 1012.5 | |
| 20260505160548 | 78 | 0.0 | 0.0 | 0.00 | 0.00 | 0.00 | 39 | 1012.6 | |
| 20260505153053 | 77 | 0.0 | 0.0 | 0.00 | 0.00 | 0.00 | 43 | 1012.9 | |
| 20260505152548 | 76 | 0.0 | 0.0 | 0.00 | 0.00 | 0.00 | 42 | 1013.0 | |
| 20260505152046 | 77 | 0.0 | 0.0 | 0.00 | 0.00 | 0.00 | 43 | 1012.8 | |
| 20260505151556 | 76 | 0.0 | 0.0 | 0.00 | 0.00 | 0.00 | 43 | 1012.8 | |
| 20260505151047 | 76 | 0.0 | 0.0 | 0.00 | 0.00 | 0.00 | 44 | 1012.8 | |
| 20260505150553 | 75 | 0.0 | 0.0 | 0.00 | 0.00 | 0.00 | 45 | 1012.9 |